PERSEUS-M2

Last updated on Thu Mar 05 2026 00:04:02 GMT+0000 (Coordinated Universal Time)

1 40037U 14033AD 26063.60764873 .00004013 00000+0 37092-3 0 9994 2 40037 97.9867 12.1178 0010204 290.7557 69.2570 14.95130986635159
UTC large
Height (km)
Speed (km/s)
/
Latitude / Longitude
Inclination (degrees)
Orbital Period (minutes)
Azimuth
Elevation
Range (km)
Doppler Factor

Next 0 passes for location: London (51.5072 / 0.1276)

Sorry there are no passes over London.